Location: Unspecified
(0.0000°N, 0.0000°E)
Time: 19:33:59
(UTC+00:00)

PAYLOAD G - Visible Passes

Search period start: 15 May 2026 00:00
Search period end: 25 May 2026 00:00
Orbit: 806 x 818 km, 98.7° (Epoch: 15 May)

Date Brightness Start Highest point End Pass type
(mag) Time Alt. Az. Time Alt. Az. Time Alt. Az.
15 May ? 05:23:16 10° NE 05:27:58 33° ESE 05:32:39 10° SSE visible
16 May ? 05:01:30 10° ENE 05:04:56 17° ESE 05:08:19 10° SE visible
17 May ? 18:56:01 10° SSW 18:59:48 20° WSW 19:03:34 10° WNW visible
18 May ? 18:31:53 10° S 18:36:45 37° WSW 18:41:36 10° NW visible
19 May ? 05:30:27 10° NE 05:35:22 40° ESE 05:40:18 10° S visible
20 May ? 05:08:24 10° NE 05:12:20 21° ESE 05:16:15 10° SSE visible
21 May ? 04:48:07 10° E 04:49:18 11° ESE 04:50:28 10° ESE visible
21 May ? 19:04:00 10° SW 19:07:12 16° WSW 19:10:23 10° WNW visible
22 May ? 18:39:33 10° SSW 18:44:09 30° WSW 18:48:46 10° NW visible
23 May ? 18:15:53 10° S 18:21:06 57° WSW 18:26:19 10° NNW visible
24 May ? 05:15:24 10° NE 05:19:44 26° ESE 05:24:04 10° SSE visible
